Waarnemingen

Advertentie
Mijn weer
Figari, Frankrijk (7780): temperatuur & dauwpunt: 16.10.2017 15:00:00 - 22.10.2017 15:00:00 (CEST)Figari, Frankrijk (7780): temperatuur 5cm: 16.10.2017 15:00:00 - 22.10.2017 15:00:00 (CEST)Figari, Frankrijk (7780): windsnelheid & windstoten: 16.10.2017 15:00:00 - 22.10.2017 15:00:00 (CEST)Figari, Frankrijk (7780): windrichting: 16.10.2017 15:00:00 - 22.10.2017 15:00:00 (CEST)Figari, Frankrijk (7780): luchtdruk: 16.10.2017 15:00:00 - 22.10.2017 15:00:00 (CEST)Figari, Frankrijk (7780): zicht: 16.10.2017 15:00:00 - 22.10.2017 15:00:00 (CEST)Figari, Frankrijk (7780): Zonneschijnduur: 16.10.2017 15:00:00 - 22.10.2017 15:00:00 (CEST)Figari, Frankrijk (7780): neerslag: 16.10.2017 15:00:00 - 22.10.2017 15:00:00 (CEST)
Datum & Tijd tt [°C] td [°C] tt 5cm [°C] ff [km/u] ff [kn] fx [km/u] fx [kn] dd ppp [hPa] vv [km] sd [min] rr [mm]
22.10.2017 15:00:00 19,8 8,8 25,2 46 25 81 44 WNW 1016,1 28 60 0,0
22.10.2017 14:00:00 21,3 6,8 27,4 49 26 83 45 W 1016,3 40 60 0,0
22.10.2017 13:00:00 21,4 11,1 21,5 34 18 61 33 W 1017,0 10 34 0,0
22.10.2017 12:00:00 20,2 12,9 21,4 35 19 55 30 W 1017,8 10 10 0,0
22.10.2017 11:00:00 20,4 14,5 18,3 16 9 37 20 W 1018,1 44 0 0,2
22.10.2017 10:00:00 19,8 15,0 18,0 21 11 36 20 W 1018,3 51 1 0,0
22.10.2017 09:00:00 18,8 16,9 16,9 18 10 28 15 WZW 1018,0 10 0 0,0
22.10.2017 08:00:00 18,6 16,9 16,9 16 9 28 15 ZW 1017,2 41 0 0,0
22.10.2017 07:00:00 18,7 17,0 17,0 16 9 33 18 WZW 1017,4 40 0 0,0
22.10.2017 06:00:00 18,9 17,7 16,8 16 9 26 14 WZW 1017,5 16 0 0,0
22.10.2017 05:00:00 18,3 17,0 16,9 18 10 29 16 WZW 1017,9 44 0 0,0
22.10.2017 04:00:00 19,0 17,7 17,7 21 11 30 16 WZW 1018,7 10 0 5,5
22.10.2017 03:00:00 20,0 16,8 18,6 11 6 24 13 WZW 1019,4 10 0 0,0
22.10.2017 02:00:00 19,9 16,3 17,6 14 8 27 15 WZW 1019,8 60 0 0,0
22.10.2017 01:00:00 19,3 15,2 17,6 18 10 26 14 ZW 1020,3 10 0 0,0
22.10.2017 00:00:00 19,7 15,3 17,9 18 10 30 16 ZW 1020,4 46 0 0,0
21.10.2017 23:00:00 19,5 15,8 17,5 17 9 24 13 ZW 1020,7 39 0 0,0
21.10.2017 22:00:00 19,7 15,1 17,1 19 10 25 14 ZW 1020,7 48 0 0,0
21.10.2017 21:00:00 19,5 13,0 17,3 16 9 29 16 ZW 1020,8 60 0 0,0
21.10.2017 20:00:00 21,9 13,8 19,0 24 13 36 19 ZW 1020,4 49 0 0,0
21.10.2017 19:00:00 21,4 15,7 19,6 19 10 28 15 WZW 1019,9 37 8 0,0
21.10.2017 18:00:00 22,8 16,8 21,8 21 11 31 17 WZW 1019,8 10 60 0,0
21.10.2017 17:00:00 24,2 17,9 26,1 24 13 37 20 WZW 1020,0 32 60 0,0
21.10.2017 16:00:00 25,9 16,7 30,1 24 13 46 25 WZW 1020,1 10 60 0,0
21.10.2017 15:00:00 26,6 16,2 32,7 26 14 44 24 WZW 1020,3 10 60 0,0
21.10.2017 14:00:00 25,9 16,4 32,5 31 17 43 23 ZW 1020,7 10 60 0,0
21.10.2017 13:00:00 25,0 17,2 29,1 23 12 34 18 ZW 1021,3 30 60 0,0
21.10.2017 12:00:00 24,0 18,4 31,0 16 9 27 14 ZZW 1021,9 10 60 0,0
21.10.2017 11:00:00 23,2 17,4 28,5 11 6 17 9 ZW 1021,9 10 60 0,0
21.10.2017 10:00:00 21,1 17,7 16,2 0 0 4 2 N 1021,7 10 60 0,0
21.10.2017 09:00:00 14,2 14,0 9,6 2 1 6 3 - 1021,3 10 23 0,0
21.10.2017 08:00:00 10,1 9,8 6,6 0 0 5 3 N 1021,1 6 0 0,0
21.10.2017 07:00:00 10,6 10,3 6,8 2 1 5 3 ONO 1020,6 2,3 0 0,0
21.10.2017 06:00:00 11,3 10,8 7,3 4 2 8 4 NO 1020,4 6 0 0,0
21.10.2017 05:00:00 12,0 11,7 7,5 8 4 9 5 N 1020,3 9 0 0,0
21.10.2017 04:00:00 13,2 12,1 8,2 5 3 9 5 NNO 1020,3 12 0 0,0
21.10.2017 03:00:00 14,6 13,0 9,9 5 3 11 6 - 1020,5 10 0 0,2
21.10.2017 02:00:00 14,4 13,1 9,8 9 5 12 7 N 1020,7 10 0 0,0
21.10.2017 01:00:00 15,3 14,5 10,0 5 3 10 5 - 1020,8 10 0 0,0
21.10.2017 00:00:00 16,4 14,4 12,6 5 3 14 8 ONO 1021,0 10 0 0,0
20.10.2017 23:00:00 17,2 15,7 13,8 9 5 16 9 ONO 1020,9 10 0 0,0
20.10.2017 22:00:00 16,8 15,3 14,2 10 6 16 8 NO 1020,6 18 0 0,0
20.10.2017 21:00:00 17,7 16,4 14,6 9 5 13 7 ONO 1020,1 14 0 0,0
20.10.2017 20:00:00 18,6 17,3 - 9 5 18 10 NO 1020,1 10 - -
20.10.2017 19:00:00 19,5 17,5 17,2 11 6 26 14 NO 1019,8 20 13 0,0
20.10.2017 18:00:00 21,7 17,3 20,7 11 6 27 15 O 1019,0 30 60 0,0
20.10.2017 17:00:00 23,2 16,5 25,1 13 7 29 15 O 1018,5 45 60 0,0
20.10.2017 16:00:00 24,0 17,0 27,3 18 10 34 18 O 1018,3 10 60 0,0
20.10.2017 15:00:00 23,7 17,2 24,3 16 9 32 17 O 1018,1 10 35 0,0
20.10.2017 14:00:00 23,7 16,5 27,1 18 10 32 17 O 1018,2 10 57 0,0
20.10.2017 13:00:00 23,9 17,4 23,2 17 9 29 16 O 1018,5 29 38 0,0
20.10.2017 12:00:00 21,8 18,0 21,9 11 6 25 13 O 1018,9 10 13 0,0
20.10.2017 11:00:00 21,2 18,2 20,2 11 6 24 13 ONO 1018,5 26 11 0,0
20.10.2017 10:00:00 20,8 18,7 19,4 13 7 23 12 ONO 1018,1 20 25 0,0
20.10.2017 09:00:00 19,8 18,5 18,0 13 7 24 13 NO 1017,9 17 7 0,0
20.10.2017 08:00:00 19,3 18,3 17,6 13 7 25 14 NO 1017,0 16 0 0,2
20.10.2017 07:00:00 19,0 17,0 17,6 13 7 43 23 NO 1016,3 20 0 5,1
20.10.2017 06:00:00 19,6 17,6 17,9 16 9 33 18 ONO 1015,8 23 0 0,0
20.10.2017 05:00:00 19,1 17,4 17,5 16 9 27 15 ONO 1015,5 10 0 0,0
20.10.2017 04:00:00 19,2 17,3 17,6 16 8 28 15 ONO 1015,6 24 0 0,0
20.10.2017 03:00:00 19,3 16,9 17,8 15 8 29 16 ONO 1016,0 10 0 0,0
20.10.2017 02:00:00 20,0 17,2 17,8 18 10 34 18 NO 1016,2 31 0 0,0
20.10.2017 01:00:00 19,5 16,9 17,8 14 8 32 18 ONO 1016,0 33 0 0,0
20.10.2017 00:00:00 19,7 16,7 18,2 16 9 30 16 ONO 1016,1 10 0 0,0
19.10.2017 23:00:00 19,9 16,7 18,4 18 10 32 18 ONO 1015,9 39 0 0,0
19.10.2017 22:00:00 20,3 16,7 19,2 18 10 34 18 ONO 1015,9 39 0 0,0
19.10.2017 21:00:00 20,6 17,2 19,0 21 11 44 24 NO 1015,5 39 0 0,0
19.10.2017 20:00:00 20,2 17,8 19,2 22 12 40 22 NO 1015,1 26 0 0,0
19.10.2017 19:00:00 20,4 17,6 19,4 22 12 40 21 ONO 1015,2 28 0 0,0
19.10.2017 18:00:00 21,1 17,1 20,8 22 12 39 21 NO 1015,0 34 0 0,0
19.10.2017 17:00:00 21,9 16,8 22,7 24 13 42 23 ONO 1014,9 45 0 0,0
19.10.2017 16:00:00 22,5 16,8 24,8 26 14 45 25 ONO 1015,0 10 51 0,0
19.10.2017 15:00:00 24,8 16,8 25,9 26 14 45 24 O 1015,2 10 50 0,0
19.10.2017 14:00:00 23,2 14,7 26,2 22 12 42 23 ONO 1016,0 10 47 0,0
19.10.2017 13:00:00 23,9 15,9 30,1 18 10 43 23 ONO 1016,4 10 57 0,0
19.10.2017 12:00:00 23,5 16,0 26,8 22 12 42 23 ONO 1016,6 10 47 0,0
19.10.2017 11:00:00 22,6 15,9 26,4 23 13 38 21 NO 1016,6 39 58 0,0
19.10.2017 10:00:00 21,3 16,3 19,9 22 12 37 20 ONO 1016,7 10 49 0,0
19.10.2017 09:00:00 19,7 14,9 16,2 24 13 37 20 ONO 1016,6 10 27 0,0
19.10.2017 08:00:00 18,0 14,3 15,7 15 8 31 17 ONO 1016,7 10 0 0,0
19.10.2017 07:00:00 18,1 13,8 16,1 16 8 33 18 ONO 1016,6 46 0 0,0
19.10.2017 06:00:00 18,1 14,0 16,0 19 11 31 17 ONO 1016,4 44 0 0,0
19.10.2017 05:00:00 18,1 14,0 15,8 18 10 31 17 ONO 1016,5 10 0 0,0
19.10.2017 04:00:00 17,9 13,6 15,7 11 6 26 14 O 1016,5 47 0 0,0
19.10.2017 03:00:00 18,0 13,7 15,6 13 7 29 15 ONO 1016,9 49 0 0,0
19.10.2017 02:00:00 17,7 14,2 15,6 15 8 27 15 ONO 1017,4 10 0 0,0
19.10.2017 01:00:00 17,8 14,7 15,4 16 9 26 14 ONO 1017,5 10 0 0,0
19.10.2017 00:00:00 17,5 14,9 15,5 11 6 27 15 O 1018,0 39 0 0,0
18.10.2017 23:00:00 17,8 14,5 - 13 7 24 13 ONO 1018,2 10 - -
18.10.2017 22:00:00 18,3 15,5 16,4 15 8 26 14 ONO 1018,1 41 0 0,0
18.10.2017 21:00:00 18,1 15,7 - 11 6 29 16 O 1018,0 10 - 0,0
18.10.2017 20:00:00 18,5 15,9 17,0 15 8 31 17 ONO 1017,7 39 0 0,0
18.10.2017 19:00:00 19,1 16,0 17,2 13 7 30 16 ONO 1017,5 43 3 0,0
18.10.2017 18:00:00 20,9 15,9 19,8 15 8 33 18 O 1017,3 10 58 0,0
18.10.2017 17:00:00 22,6 15,7 24,2 16 9 35 19 O 1017,2 10 60 0,0
18.10.2017 16:00:00 23,6 15,9 28,5 21 11 35 19 O 1017,4 10 60 0,0
18.10.2017 15:00:00 23,9 15,1 30,8 16 9 34 19 O 1017,9 10 60 0,0
18.10.2017 14:00:00 24,7 16,1 31,8 18 10 35 19 O 1018,6 10 60 0,0
18.10.2017 13:00:00 25,0 16,2 32,5 18 10 29 16 ONO 1019,2 10 60 0,0
18.10.2017 12:00:00 23,8 15,6 29,7 15 8 30 16 ONO 1019,9 10 60 0,0
18.10.2017 11:00:00 22,1 15,7 26,1 17 9 29 16 ONO 1020,1 30 60 0,0
18.10.2017 10:00:00 20,2 15,8 16,5 11 6 22 12 ONO 1020,4 10 60 0,0
18.10.2017 09:00:00 13,5 13,0 4,4 3 2 7 4 ONO 1020,5 13 60 0,0
18.10.2017 08:00:00 7,5 7,2 2,8 4 2 6 3 NNO 1020,3 2,2 0 0,0
18.10.2017 07:00:00 8,0 7,7 3,5 5 3 6 4 NO 1020,4 0,6 0 0,0
18.10.2017 06:00:00 8,7 8,2 3,8 5 3 7 4 NNO 1020,8 9 0 0,0
18.10.2017 05:00:00 9,7 8,8 4,4 5 3 9 5 N 1020,9 7 0 0,0
18.10.2017 04:00:00 9,7 8,3 4,8 6 3 8 4 N 1021,2 10 0 0,2
18.10.2017 03:00:00 12,4 11,6 7,0 6 4 9 5 NO 1021,5 12 0 0,0
18.10.2017 02:00:00 12,6 12,1 6,6 8 4 10 6 NO 1022,0 11 0 0,0
18.10.2017 01:00:00 12,5 11,7 6,9 8 4 12 7 NNO 1022,2 8 0 0,0
18.10.2017 00:00:00 14,5 12,7 9,9 9 5 16 9 ONO 1022,5 8 0 0,0
17.10.2017 23:00:00 15,2 14,1 9,3 9 5 14 8 ONO 1023,0 10 0 0,0
17.10.2017 22:00:00 15,6 14,6 9,6 9 5 15 8 ONO 1023,1 10 0 0,2
17.10.2017 21:00:00 16,2 14,9 10,6 9 5 14 7 ONO 1023,0 10 0 0,0
17.10.2017 20:00:00 16,7 14,7 14,3 9 5 17 9 ONO 1023,0 10 0 0,0
17.10.2017 19:00:00 17,8 14,7 14,2 8 4 22 12 NO 1022,8 10 25 0,0
17.10.2017 18:00:00 21,0 15,1 19,9 11 6 23 12 O 1022,5 10 60 0,0
17.10.2017 17:00:00 23,2 14,7 24,4 11 6 26 14 ONO 1022,5 10 60 0,0
17.10.2017 16:00:00 24,0 14,4 29,3 13 7 27 14 O 1022,9 10 60 0,0
17.10.2017 15:00:00 24,8 14,3 31,7 16 9 28 15 O 1023,3 10 60 0,0
17.10.2017 14:00:00 25,3 14,1 32,7 13 7 28 15 O 1023,9 41 60 0,0
17.10.2017 13:00:00 25,3 13,2 32,0 13 7 26 14 O 1024,7 10 60 0,0
17.10.2017 12:00:00 24,1 14,8 29,8 11 6 22 12 O 1025,4 10 60 0,0
17.10.2017 11:00:00 21,6 15,0 25,4 11 6 19 11 ONO 1026,0 10 60 0,0
17.10.2017 10:00:00 19,3 15,4 17,9 13 7 19 10 ONO 1026,2 10 60 0,0
17.10.2017 09:00:00 16,6 15,0 5,5 8 5 14 8 ONO 1026,1 16 42 0,0
17.10.2017 08:00:00 12,3 12,3 3,8 5 3 10 5 ONO 1025,9 6 0 0,0
17.10.2017 07:00:00 11,7 10,6 4,8 4 2 8 4 O 1025,7 4,4 0 0,0
17.10.2017 06:00:00 15,5 14,5 9,7 6 4 14 7 ONO 1025,7 11 0 0,0
17.10.2017 05:00:00 16,2 15,2 13,8 8 5 23 13 ONO 1025,8 12 0 0,0
17.10.2017 04:00:00 16,5 16,3 5,2 9 5 16 9 ONO 1025,9 10 0 0,0
17.10.2017 03:00:00 12,3 12,0 5,0 4 2 20 11 N 1026,3 0,7 0 0,2
17.10.2017 02:00:00 9,1 8,8 3,8 4 2 13 7 ONO 1026,6 1,7 0 0,0
17.10.2017 01:00:00 8,7 8,4 3,8 5 3 10 6 NO 1026,6 8 0 0,0
17.10.2017 00:00:00 10,0 8,8 4,7 6 4 9 5 NNO 1027,0 3,7 0 0,0
16.10.2017 23:00:00 12,5 11,9 5,6 6 3 10 5 NNO 1027,2 7 0 0,0
16.10.2017 22:00:00 14,0 13,0 8,3 4 2 11 6 NO 1027,1 8 0 0,0
16.10.2017 21:00:00 15,3 14,0 10,4 8 4 13 7 NO 1027,2 11 0 0,0
16.10.2017 20:00:00 16,9 15,2 13,5 10 5 15 8 NO 1027,1 15 0 0,0
16.10.2017 19:00:00 18,5 15,6 16,2 11 6 17 9 ONO 1026,9 24 26 0,0
16.10.2017 18:00:00 21,6 15,9 20,6 11 6 21 11 ONO 1026,8 10 60 0,0
16.10.2017 17:00:00 23,4 15,7 24,8 13 7 20 11 ONO 1026,8 10 60 0,0
16.10.2017 16:00:00 25,5 15,5 33,9 7 4 15 8 NO 1026,9 47 60 0,0
16.10.2017 15:00:00 26,2 15,6 34,4 8 4 16 9 ZW 1027,1 10 60 0,0

tt = temperatuur
td = dauwpunt
tt 5cm = temperatuur 5cm
ff = windsnelheid
fx = windstoten
dd = windrichting
ppp = luchtdruk
vv = zicht
sd = Zonneschijnduur
rr = neerslag

Weerstations in de omgeving